Location: Cardiff
(53.7833°N, 113.6000°W)
Time: 00:58:46
(UTC+00:00)

AO-85 - Pass Details

Date: 12 December 2023
Orbit: 516 x 753 km, 64.8° (Epoch: 04 January)

Event Time Altitude Azimuth Distance (km) Brightness Sun altitude
Rises 01:19:12 0° 314° (NW) 2,830 ? -17.2°
Reaches altitude 10° 01:21:26 10° 319° (NW) 1,962 ? -17.5°
Maximum altitude 01:25:48 56° 38° (NE) 762 ? -18.1°
Enters shadow 01:27:27 36° 98° (E) 1,036 ? -18.4°
